WA8SIE Weather Reports


time (UTC)temp
C
wind
direction
speed
KPH
gust
KPH
rain 1hr
cm
rain 24hr
cm
rain mn
cm
humidity
%
barometer
mb
20220812004511 23 332 0.0 0.0 0.00 0.69 0.61 84 1012.7
20220812004011 23 332 0.0 0.0 0.00 0.71 0.61 83 1012.4
20220812002511 23 332 0.0 1.6 0.00 0.76 0.61 79 1012.3
20220812002011 23 332 0.0 0.0 0.00 0.79 0.61 78 1012.3
20220812001011 23 331 0.0 0.0 0.00 0.81 0.61 77 1012.2
20220811235511 25 332 0.0 0.0 0.00 0.84 0.61 74 1012.2
20220811234510 25 332 0.0 0.0 0.00 0.84 0.61 69 1012.2
20220811234011 25 331 0.0 3.2 0.00 0.84 0.61 67 1012.0
20220811231511 26 338 0.0 3.2 0.00 0.84 0.61 63 1011.9
20220811231010 26 338 0.0 4.8 0.00 0.84 0.61 67 1011.8
20220811230511 26 338 0.0 4.8 0.00 0.84 0.61 63 1011.8
20220811230011 26 335 3.2 3.2 0.00 0.84 0.61 60 1011.8
20220811225511 26 333 0.0 3.2 0.00 0.84 0.61 60 1011.8
20220811225011 26 333 0.0 4.8 0.00 0.84 0.61 59 1011.8
20220811224511 27 333 3.2 6.4 0.00 0.84 0.61 57 1011.8
20220811223011 27 16 3.2 8.0 0.00 0.84 0.61 56 1011.8
20220811221512 27 359 4.8 8.0 0.00 0.84 0.61 53 1012.0
20220811221011 27 318 0.0 11.3 0.00 0.84 0.61 55 1012.1
20220811215511 26 342 0.0 8.0 0.00 0.84 0.61 54 1012.0
20220811215011 27 334 0.0 14.5 0.00 0.84 0.61 54 1012.0
20220811214510 27 6 6.4 14.5 0.00 0.84 0.61 51 1012.0
20220811214011 27 322 8.0 9.7 0.00 0.84 0.61 52 1012.0
20220811213010 27 323 1.6 8.0 0.00 0.84 0.61 55 1012.0
20220811210011 27 297 0.0 11.3 0.00 0.84 0.61 55 1012.1
20220811205011 27 4.8 8.0 0.00 0.84 0.61 56 1012.4
20220811204511 27 334 0.0 11.3 0.00 0.84 0.61 54 1012.4
20220811200511 27 1.6 11.3 0.00 0.84 0.61 52 1012.7
20220811200011 27 294 1.6 11.3 0.00 0.84 0.61 55 1012.7
20220811194510 28 356 4.8 11.3 0.00 0.84 0.61 53 1012.7
20220811194011 28 35 0.0 14.5 0.00 0.86 0.61 54 1012.9
20220811193010 28 333 3.2 11.3 0.00 0.86 0.61 56 1012.9
20220811192511 28 283 0.0 6.4 0.00 0.89 0.61 53 1013.1
20220811192011 27 28 4.8 6.4 0.00 0.91 0.61 51 1013.1
20220811191011 27 325 1.6 9.7 0.00 0.99 0.61 58 1013.1
20220811190511 27 295 0.0 9.7 0.00 1.07 0.61 54 1013.1
20220811190011 27 321 0.0 6.4 0.00 1.19 0.61 54 1013.1
20220811183011 26 311 0.0 8.0 0.00 1.96 0.61 58 1013.4
20220811182011 27 13 0.0 9.7 0.00 1.96 0.61 54 1013.5
20220811181011 27 42 0.0 9.7 0.00 1.96 0.61 60 1013.6
20220811180511 27 6 0.0 9.7 0.00 1.96 0.61 57 1013.6
20220811175510 27 13 1.6 6.4 0.00 1.96 0.61 56 1013.6
20220811174511 27 3.2 4.8 0.00 1.96 0.61 59 1013.6
20220811173011 26 1.6 6.4 0.00 1.96 0.61 60 1013.7
20220811172511 26 323 0.0 9.7 0.00 1.96 0.61 68 1013.8
20220811170510 27 323 0.0 8.0 0.00 1.96 0.61 61 1014.0
20220811170010 26 37 0.0 9.7 0.00 1.96 0.61 64 1014.0
20220811165011 26 6 6.4 9.7 0.00 1.96 0.61 60 1014.3
20220811164510 25 46 4.8 14.5 0.00 1.96 0.61 61 1014.3
20220811164010 25 118 8.0 14.5 0.00 1.96 0.61 65 1014.5
20220811163011 25 324 1.6 11.3 0.00 1.96 0.61 63 1014.5
20220811162511 26 358 0.0 11.3 0.00 1.96 0.61 63 1014.5
20220811162010 26 12 6.4 14.5 0.00 1.96 0.61 60 1014.5
20220811161011 26 307 0.0 8.0 0.00 1.96 0.61 64 1014.7
20220811160511 26 311 4.8 6.4 0.00 1.96 0.61 66 1014.7
20220811160011 26 96 0.0 6.4 0.00 1.96 0.61 67 1014.7
20220811154011 25 56 4.8 8.0 0.00 1.96 0.61 70 1014.9
20220811152510 25 36 0.0 8.0 0.00 1.96 0.61 74 1014.9
20220811152011 24 27 3.2 6.4 0.00 1.96 0.61 75 1014.9
20220811151511 24 33 0.0 9.7 0.00 1.96 0.61 76 1014.9
20220811151011 23 51 3.2 9.7 0.00 1.96 0.61 77 1014.8
20220811150011 23 148 0.0 6.4 0.00 1.96 0.61 78 1014.8
20220811145011 23 315 0.0 6.4 0.00 1.96 0.61 81 1014.9
20220811144511 23 20 4.8 9.7 0.00 1.96 0.61 81 1014.9
20220811143010 23 311 1.6 8.0 0.00 1.96 0.61 86 1014.9
20220811142511 22 304 3.2 9.7 0.00 1.96 0.61 87 1014.9
20220811142011 22 43 0.0 9.7 0.00 1.96 0.61 89 1014.9
20220811141510 22 21 0.0 8.0 0.00 1.96 0.61 91 1014.9
20220811140511 22 0.0 4.8 0.00 1.96 0.61 91 1014.7
20220811140011 22 327 0.0 4.8 0.00 1.96 0.61 91 1014.7
20220811135511 22 26 0.0 4.8 0.00 1.96 0.61 91 1014.8
20220811135011 22 19 0.0 3.2 0.00 1.96 0.61 92 1014.8
20220811133011 22 20 1.6 3.2 0.00 1.96 0.61 94 1014.8
20220811132510 22 20 0.0 3.2 0.00 1.96 0.61 93 1014.9
20220811131511 22 17 0.0 4.8 0.00 1.96 0.61 95 1014.9
20220811130511 22 18 0.0 4.8 0.00 1.96 0.61 96 1014.9
20220811124511 22 11 0.0 8.0 0.00 1.96 0.61 100 1014.6
20220811123011 22 6 0.0 4.8 0.00 1.96 0.61 100 1014.5
20220811122511 22 358 1.6 6.4 0.00 1.96 0.61 100 1014.4
20220811122011 22 327 1.6 6.4 0.00 1.96 0.61 100 1014.4
20220811121511 22 313 0.0 6.4 0.00 1.96 0.61 100 1014.4
20220811120510 22 312 3.2 9.7 0.00 1.96 0.61 100 1014.2
20220811120011 22 321 1.6 8.0 0.00 1.96 0.61 100 1014.2
20220811115510 22 332 0.0 1.6 0.00 1.96 0.61 100 1013.9
20220811115010 22 332 0.0 3.2 0.00 1.96 0.61 100 1013.9
20220811114512 22 332 0.0 4.8 0.00 1.96 0.61 100 1013.9
20220811114011 22 332 3.2 4.8 0.00 1.96 0.61 100 1013.8
20220811113511 22 333 0.0 1.6 0.00 1.96 0.61 100 1013.8
20220811112510 22 332 1.6 3.2 0.13 1.96 0.61 100 1013.7
20220811112011 22 332 0.0 3.2 0.15 1.96 0.61 100 1013.7
20220811111011 22 332 0.0 0.0 0.15 1.96 0.61 100 1013.5
20220811110511 22 332 0.0 0.0 0.15 1.96 0.61 100 1013.5
20220811110011 22 332 0.0 0.0 0.15 1.96 0.61 100 1013.5
20220811105511 22 332 0.0 1.6 0.15 1.96 0.61 100 1013.3
20220811105011 22 331 0.0 1.6 0.15 1.96 0.61 100 1013.3
20220811104011 22 332 0.0 3.2 0.15 1.96 0.61 100 1013.3
20220811103510 22 332 0.0 6.4 0.15 1.96 0.61 100 1013.3
20220811102011 22 216 0.0 0.0 0.00 1.80 0.46 100 1013.2
20220811101511 22 215 0.0 1.6 0.00 1.80 0.46 100 1013.2
20220811100010 22 216 0.0 0.0 0.00 1.80 0.46 100 1013.2
20220811095511 22 216 0.0 3.2 0.00 1.80 0.46 100 1013.2
20220811094511 22 216 0.0 4.8 0.03 1.80 0.46 100 1013.2
20220811093511 22 216 0.0 0.0 0.03 1.80 0.46 100 1013.2
20220811092511 22 216 0.0 0.0 0.03 1.80 0.46 100 1013.1
20220811091011 21 216 0.0 1.6 0.08 1.80 0.46 100 1013.2
20220811090011 21 216 0.0 0.0 0.08 1.80 0.46 100 1013.2
20220811085511 21 216 0.0 1.6 0.08 1.80 0.46 100 1013.2
20220811084512 21 216 0.0 0.0 0.05 1.78 0.43 100 1013.2
20220811084011 21 216 0.0 0.0 0.05 1.78 0.43 100 1013.2
20220811083511 21 216 0.0 0.0 0.05 1.78 0.43 100 1013.2
20220811083011 21 216 0.0 3.2 0.05 1.78 0.43 100 1013.2
20220811082011 21 216 0.0 4.8 0.05 1.78 0.43 100 1013.3
20220811081511 21 216 0.0 6.4 0.00 1.73 0.38 100 1013.3
20220811080011 21 221 0.0 6.4 0.00 1.73 0.38 100 1013.4
20220811075011 21 212 0.0 6.4 0.00 1.73 0.38 100 1013.5
20220811074511 21 212 0.0 6.4 0.00 1.73 0.38 100 1013.5
20220811073510 21 212 3.2 9.7 0.00 1.73 0.38 100 1013.6
20220811073011 21 212 3.2 9.7 0.23 1.73 0.38 100 1013.6
20220811072511 22 219 0.0 6.4 0.38 1.73 0.38 100 1013.6
20220811072011 21 219 0.0 6.4 0.38 1.73 0.38 100 1013.6
20220811065511 22 219 0.0 4.8 0.38 1.73 0.38 100 1013.8
20220811064511 22 219 0.0 6.4 0.38 1.73 0.38 100 1013.8
20220811064010 22 219 0.0 6.4 0.38 1.73 0.38 100 1013.8
20220811063511 22 220 0.0 4.8 0.38 1.73 0.38 100 1013.8
20220811063011 22 221 0.0 4.8 0.15 1.50 0.15 100 1013.8
20220811062511 22 221 0.0 0.0 0.03 1.37 0.03 100 1013.9
20220811060511 22 220 0.0 3.2 0.00 1.35 0.00 100 1013.8
20220811055011 22 221 0.0 6.4 0.00 1.35 0.00 100 1013.9
20220811052511 22 213 0.0 4.8 0.00 1.35 0.00 100 1014.2
20220811051511 22 213 0.0 8.0 0.00 1.35 0.00 100 1014.2
20220811050011 22 254 0.0 1.6 0.00 1.35 0.00 100 1014.1
20220811045011 22 254 0.0 3.2 0.00 1.35 0.00 100 1014.1
20220811044511 22 254 0.0 1.6 0.00 1.35 0.00 100 1014.1
20220811044010 22 254 0.0 3.2 0.00 1.35 0.00 100 1014.1
20220811043511 22 254 0.0 3.2 0.00 1.35 0.00 100 1014.1
20220811042511 22 254 0.0 0.0 0.00 1.35 0.00 100 1014.1
20220811042011 22 254 0.0 3.2 0.00 1.35 0.00 100 1014.1
20220811035511 22 254 0.0 3.2 0.00 1.35 1.35 100 1014.2
20220811035010 22 254 0.0 3.2 0.00 1.35 1.35 100 1014.2
20220811034511 22 255 1.6 3.2 0.00 1.35 1.35 100 1014.2
20220811033511 22 254 0.0 0.0 0.00 1.35 1.35 100 1014.2
20220811032510 22 254 0.0 0.0 0.00 1.35 1.35 100 1014.0
20220811031011 22 254 0.0 3.2 0.00 1.35 1.35 100 1014.1
20220811030011 22 254 0.0 1.6 0.03 1.35 1.35 100 1014.1
20220811025511 22 254 0.0 1.6 0.03 1.35 1.35 100 1014.2
20220811025011 22 254 0.0 1.6 0.03 1.35 1.35 100 1014.2
20220811023511 22 254 0.0 0.0 0.03 1.35 1.35 100 1014.3
20220811021510 22 255 0.0 0.0 0.03 1.35 1.35 99 1014.5
20220811020011 22 254 0.0 0.0 0.03 1.32 1.32 99 1014.5
20220811015511 22 254 0.0 0.0 0.03 1.32 1.32 99 1014.5
20220811012511 22 254 0.0 0.0 0.13 1.32 1.32 99 1014.6
20220811011512 22 254 0.0 0.0 0.18 1.32 1.32 98 1014.6
20220811011011 22 253 0.0 0.0 0.18 1.32 1.32 98 1014.7